This demonstration page uses our WeatherBlox Daily Observations layout. Learn more.

Left ArrowRight Arrow

Hourly Observations for August 5, 2017

Temp ( °F °C ) Dew Point ( °F °C ) Humidity (%) Winds ( mph kmh ) Pressure ( in mb ) Visibility ( mi km ) Precip ( " mm )
12:52 am 00:52 Clear 58 14.4 52 11.1 81 81 Calm 30.07 1018 10 16 0.00 0.00
1:52 am 01:52 Clear 59 15 52 11.1 78 78 Calm 30.07 1018 10 16 0.00 0.00
2:52 am 02:52 Mostly Clear 62 16.7 50 10 65 65 ESE 5 7 30.06 1018 10 16 0.00 0.00
3:52 am 03:52 Clear 61 16.1 50 10 67 67 SE 3 6 30.06 1018 10 16 0.00 0.00
4:52 am 04:52 Mostly Cloudy 62 16.7 52 11.1 70 70 ESE 8 13 30.04 1017 10 16 0.00 0.00
5:52 am 05:52 Partly Cloudy 63 17.2 50 10 63 63 SE 12 19 30.01 1016 10 16 0.00 0.00
6:52 am 06:52 Mostly Sunny 65 18.3 51 10.6 61 61 SE 12 19 30.01 1016 10 16 0.00 0.00
7:52 am 07:52 Partly Cloudy 67 19.4 52 11.1 59 59 SSE 13 20 30.03 1017 10 16 0.00 0.00
8:52 am 08:52 Mostly Cloudy 68 20 55 12.8 63 63 SE 16 26 30.02 1017 10 16 0.00 0.00
9:40 am 09:40 Cloudy 69 20.6 57 13.9 66 66 SE 20 31 30.03 1017 10 16 0.00 0.00
9:52 am 09:52 Cloudy 69 20.6 58 14.4 68 68 SE 17 28 30.01 1016 10 16 0.00 0.00
10:12 am 10:12 Cloudy with Nearby Thunderstorms 68 20 58 14.4 70 70 SE 18 30 30.00 1016 10 16 0.00 0.00
10:38 am 10:38 Cloudy with Thunderstorms 65 18.3 60 15.6 84 84 SE 15 24 30.03 1017 8 13 0.02 0.51
10:52 am 10:52 Cloudy with Thunderstorms 64 17.8 61 16.1 90 90 SE 17 28 30.02 1017 5 8 0.07 1.78
11:18 am 11:18 Cloudy with Nearby Thunderstorms 64 17.8 60 15.6 87 87 SE 16 26 30.00 1016 10 16 0.00 0.03
11:25 am 11:25 Cloudy with Thunderstorms 64 17.8 60 15.6 87 87 SE 13 20 30.00 1016 10 16 0.00 0.03
11:39 am 11:39 Cloudy 65 18.3 60 15.6 84 84 SE 14 22 30.00 1016 10 16 0.00 0.03
11:52 am 11:52 Mostly Cloudy with Nearby Thunderstorms 65 18.3 60 15.6 84 84 SE 15 24 30.00 1016 10 16 0.00 0.03
12:01 pm 12:01 Mostly Cloudy 65 18.3 60 15.6 84 84 SE 18 30 29.97 1015 10 16 0.00 0.00
12:09 pm 12:09 Cloudy with Thunderstorms 65 18.3 60 15.6 84 84 SSE 15 24 30.00 1016 10 16 0.00 0.03
12:16 pm 12:16 Cloudy with Thunderstorms 64 17.8 61 16.1 90 90 NNW 18 30 30.06 1018 10 16 0.00 0.03
12:20 pm 12:20 Cloudy with Strong Thunderstorms 63 17.2 61 16.1 93 93 NW 28 44 30.06 1018 2 3 0.00 0.03
12:27 pm 12:27 Cloudy with Strong Thunderstorms 64 17.8 61 16.1 90 90 NNW 16 26 30.09 1019 1 2 0.30 7.62
12:33 pm 12:33 Cloudy with Strong Thunderstorms 63 17.2 62 16.7 97 97 NW 9 15 30.12 1020 2 3 0.37 9.40
12:52 pm 12:52 Cloudy with Strong Thunderstorms 63 17.2 62 16.7 97 97 SSE 17 28 30.03 1017 1 2 0.62 15.75
1:01 pm 13:01 Cloudy with Thunderstorms 63 17.2 63 17.2 100 100 S 10 17 30.03 1017 3 5 0.08 2.03
1:18 pm 13:18 Cloudy with Strong Thunderstorms 63 17.2 63 17.2 100 100 NNE 9 15 30.06 1018 3 4 0.11 2.79
1:25 pm 13:25 Cloudy with Strong Thunderstorms 63 17.2 63 17.2 100 100 ENE 10 17 30.06 1018 1 2 0.19 4.83
1:38 pm 13:38 Cloudy with Strong Thunderstorms 62 16.7 62 16.7 100 100 Calm 30.12 1020 0 0 0.42 10.67
1:47 pm 13:47 Cloudy with Strong Thunderstorms 63 17 63 17 100 100 E 9 15 30.09 1019 1 1 0.77 19.56
1:52 pm 13:52 Cloudy with Strong Thunderstorms 62 16.7 62 16.7 100 100 E 6 9 30.09 1019 2 3 0.81 20.57
2:12 pm 14:12 Cloudy with Nearby Thunderstorms 62 16.7 62 16.7 100 100 ESE 10 17 30.09 1019 2 3 0.17 4.32
2:22 pm 14:22 Cloudy with Nearby Thunderstorms 63 17.2 63 17.2 100 100 E 9 15 30.06 1018 5 8 0.20 5.08
2:50 pm 14:50 Cloudy with Nearby Thunderstorms 63 17 63 17 100 100 SE 16 26 30.00 1016 10 16 0.27 6.86
2:52 pm 14:52 Cloudy 63 17.2 63 17.2 100 100 SE 16 26 29.99 1016 10 16 0.27 6.86
2:59 pm 14:59 Mostly Cloudy 63 17.2 63 17.2 100 100 SE 20 31 29.97 1015 10 16 0.00 0.00
3:37 pm 15:37 Partly Cloudy 68 20 66 18.9 93 93 SSE 20 31 29.94 1014 10 16 0.00 0.00
3:52 pm 15:52 Sunny 69 20.6 66 18.9 90 90 S 16 26 29.94 1014 10 16 0.00 0.00
4:52 pm 16:52 Sunny 74 23.3 66 18.9 76 76 SSE 16 26 29.93 1014 10 16 0.00 0.00
5:52 pm 17:52 Sunny 75 23.9 64 17.8 69 69 SSE 21 33 29.91 1013 10 16 0.00 0.00
6:52 pm 18:52 Sunny 73 22.8 63 17.2 71 71 SE 21 33 29.90 1013 10 16 0.00 0.00
7:52 pm 19:52 Sunny 71 21.7 61 16.1 71 71 SE 18 30 29.89 1012 10 16 0.00 0.00
8:52 pm 20:52 Clear 69 20.6 60 15.6 73 73 SE 18 30 29.90 1013 10 16 0.00 0.00
9:52 pm 21:52 Clear 68 20 60 15.6 76 76 SSE 22 35 29.86 1011 10 16 0.00 0.00
10:52 pm 22:52 Clear 68 20 60 15.6 76 76 SE 22 35 29.88 1012 10 16 0.00 0.00
11:52 pm 23:52 Mostly Cloudy 69 20.6 60 15.6 73 73 ESE 14 22 29.91 1013 10 16 0.00 0.00

Powered by AerisWeather